This is the latest recevied weather packets stored in our database for station/object DO0SOB-11. If no packets are shown the sender has not sent any weather packets the latest 10 day(s).
| Time | Temp. | Humidity | Pressure | Rain* | Wind** | Luminosity | Snow |
|---|---|---|---|---|---|---|---|
| 1787650645 | 18.89° C | 100% | 977.2 hPa | - | - | - | - |
| 1787649624 | 17.78° C | 100% | 977.1 hPa | - | - | - | - |
| 1787648604 | 18.33° C | 100% | 977 hPa | - | - | - | - |
| 1787647584 | 17.22° C | 100% | 976.9 hPa | - | - | - | - |
| 1787646564 | 16.67° C | 100% | 976.8 hPa | - | - | - | - |
| 1787645544 | 16.11° C | 100% | 976.8 hPa | - | - | - | - |
| 1787644524 | 16.11° C | 100% | 976.6 hPa | - | - | - | - |
| 1787643504 | 16.67° C | 100% | 976.6 hPa | - | - | - | - |
| 1787642484 | 15.56° C | 100% | 976.4 hPa | - | - | - | - |
| 1787641463 | 15° C | 100% | 976.5 hPa | - | - | - | - |
| 1787640443 | 14.44° C | 100% | 976.4 hPa | - | - | - | - |
| 1787639423 | 13.89° C | 100% | 976.3 hPa | - | - | - | - |
| 1787638403 | 12.78° C | 100% | 976.5 hPa | - | - | - | - |
| 1787637383 | 12.78° C | 100% | 976.7 hPa | - | - | - | - |
| 1787636363 | 11.67° C | 100% | 976.6 hPa | - | - | - | - |
| 1787635343 | 11.11° C | 100% | 976.6 hPa | - | - | - | - |
| 1787634323 | 11.11° C | 100% | 976.6 hPa | - | - | - | - |
| 1787633303 | 10° C | 100% | 976.8 hPa | - | - | - | - |
| 1787632283 | 10° C | 100% | 976.8 hPa | - | - | - | - |
| 1787631263 | 10.56° C | 100% | 976.8 hPa | - | - | - | - |
| 1787630243 | 10° C | 100% | 976.8 hPa | - | - | - | - |
| 1787629222 | 10° C | 100% | 976.9 hPa | - | - | - | - |
| 1787628202 | 10° C | 100% | 977.1 hPa | - | - | - | - |
| 1787627182 | 9.44° C | 100% | 977 hPa | - | - | - | - |
| 1787626162 | 10.56° C | 100% | 976.9 hPa | - | - | - | - |
* Rain since midnight (hover to see other rain measurements)
** Current wind speed in m/s (hover to see current wind gust speed)